Year,Month,Day,Hour,Minute,Value (Times are PST for temperature in C)
2016,11,21,00,00,7.00
2016,11,21,00,01,7.00
2016,11,21,00,02,7.00
2016,11,21,00,03,6.90
2016,11,21,00,04,6.90
2016,11,21,00,05,7.00
2016,11,21,00,06,7.00
2016,11,21,00,07,7.00
2016,11,21,00,08,7.10
2016,11,21,00,09,7.20
2016,11,21,00,10,7.20
2016,11,21,00,11,7.20
2016,11,21,00,12,7.10
2016,11,21,00,13,7.10
2016,11,21,00,14,7.10
2016,11,21,00,15,7.10
2016,11,21,00,16,7.10
2016,11,21,00,17,7.10
2016,11,21,00,18,7.10
2016,11,21,00,19,7.10
2016,11,21,00,20,7.10
2016,11,21,00,21,7.10
2016,11,21,00,22,7.10
2016,11,21,00,23,7.10
2016,11,21,00,24,7.10
2016,11,21,00,25,7.10
2016,11,21,00,26,7.10
2016,11,21,00,27,7.10
2016,11,21,00,28,7.10
2016,11,21,00,29,7.10
2016,11,21,00,30,7.10
2016,11,21,00,31,7.10
2016,11,21,00,32,7.10
2016,11,21,00,33,7.10
2016,11,21,00,34,7.20
2016,11,21,00,35,7.20
2016,11,21,00,36,7.20
2016,11,21,00,37,7.20
2016,11,21,00,38,7.20
2016,11,21,00,39,7.20
2016,11,21,00,40,7.20
2016,11,21,00,41,7.20
2016,11,21,00,42,7.20
2016,11,21,00,43,7.20
2016,11,21,00,44,7.20
2016,11,21,00,45,7.20
2016,11,21,00,46,7.20
2016,11,21,00,47,7.20
2016,11,21,00,48,7.20
2016,11,21,00,49,7.20
2016,11,21,00,50,7.20
2016,11,21,00,51,7.20
2016,11,21,00,52,7.20
2016,11,21,00,53,7.20
2016,11,21,00,54,7.20
2016,11,21,00,55,7.20
2016,11,21,00,56,7.20
2016,11,21,00,57,7.20
2016,11,21,00,58,7.20
2016,11,21,00,59,7.20
2016,11,21,01,00,7.20
2016,11,21,01,01,7.20
2016,11,21,01,02,7.20
2016,11,21,01,03,7.20
2016,11,21,01,04,7.20
2016,11,21,01,05,7.20
2016,11,21,01,06,7.20
2016,11,21,01,07,7.20
2016,11,21,01,08,7.20
2016,11,21,01,09,7.20
2016,11,21,01,10,7.20
2016,11,21,01,11,7.20
2016,11,21,01,12,7.20
2016,11,21,01,13,7.20
2016,11,21,01,14,7.20
2016,11,21,01,15,7.20
2016,11,21,01,16,7.20
2016,11,21,01,17,7.20
2016,11,21,01,18,7.20
2016,11,21,01,19,7.20
2016,11,21,01,20,7.20
2016,11,21,01,21,7.20
2016,11,21,01,22,7.20
2016,11,21,01,23,7.20
2016,11,21,01,24,7.20
2016,11,21,01,25,7.20
2016,11,21,01,26,7.30
2016,11,21,01,27,7.30
2016,11,21,01,28,7.30
2016,11,21,01,29,7.30
2016,11,21,01,30,7.30
2016,11,21,01,31,7.30
2016,11,21,01,32,7.30
2016,11,21,01,33,7.30
2016,11,21,01,34,7.30
2016,11,21,01,35,7.30
2016,11,21,01,36,7.30
2016,11,21,01,37,7.30
2016,11,21,01,38,7.30
2016,11,21,01,39,7.30
2016,11,21,01,40,7.30
2016,11,21,01,41,7.30
2016,11,21,01,42,7.30
2016,11,21,01,43,7.30
2016,11,21,01,44,7.30
2016,11,21,01,45,7.40
2016,11,21,01,46,7.40
2016,11,21,01,47,7.50
2016,11,21,01,48,7.50
2016,11,21,01,49,7.50
2016,11,21,01,50,7.60
2016,11,21,01,51,7.60
2016,11,21,01,52,7.60
2016,11,21,01,53,7.60
2016,11,21,01,54,7.60
2016,11,21,01,55,7.60
2016,11,21,01,56,7.60
2016,11,21,01,57,7.50
2016,11,21,01,58,7.50
2016,11,21,01,59,7.50
2016,11,21,02,00,7.50
2016,11,21,02,01,7.50
2016,11,21,02,02,7.50
2016,11,21,02,03,7.50
2016,11,21,02,04,7.50
2016,11,21,02,05,7.50
2016,11,21,02,06,7.50
2016,11,21,02,07,7.50
2016,11,21,02,08,7.50
2016,11,21,02,09,7.50
2016,11,21,02,10,7.50
2016,11,21,02,11,7.50
2016,11,21,02,12,7.50
2016,11,21,02,13,7.50
2016,11,21,02,14,7.50
2016,11,21,02,15,7.50
2016,11,21,02,16,7.50
2016,11,21,02,17,7.50
2016,11,21,02,18,7.50
2016,11,21,02,19,7.50
2016,11,21,02,20,7.50
2016,11,21,02,21,7.50
2016,11,21,02,22,7.50
2016,11,21,02,23,7.50
2016,11,21,02,24,7.50
2016,11,21,02,25,7.50
2016,11,21,02,26,7.50
2016,11,21,02,27,7.50
2016,11,21,02,28,7.50
2016,11,21,02,29,7.50
2016,11,21,02,30,7.50
2016,11,21,02,31,7.50
2016,11,21,02,32,7.50
2016,11,21,02,33,7.50
2016,11,21,02,34,7.40
2016,11,21,02,35,7.40
2016,11,21,02,36,7.40
2016,11,21,02,37,7.40
2016,11,21,02,38,7.40
2016,11,21,02,39,7.40
2016,11,21,02,40,7.40
2016,11,21,02,41,7.50
2016,11,21,02,42,7.60
2016,11,21,02,43,7.70
2016,11,21,02,44,7.70
2016,11,21,02,45,7.80
2016,11,21,02,46,7.80
2016,11,21,02,47,7.90
2016,11,21,02,48,7.90
2016,11,21,02,49,8.00
2016,11,21,02,50,8.00
2016,11,21,02,51,8.10
2016,11,21,02,52,8.20
2016,11,21,02,53,8.30
2016,11,21,02,54,8.30
2016,11,21,02,55,8.40
2016,11,21,02,56,8.40
2016,11,21,02,57,8.50
2016,11,21,02,58,8.50
2016,11,21,02,59,8.50
2016,11,21,03,00,8.40
2016,11,21,03,01,8.40
2016,11,21,03,02,8.40
2016,11,21,03,03,8.50
2016,11,21,03,04,8.60
2016,11,21,03,05,8.60
2016,11,21,03,06,8.70
2016,11,21,03,07,8.70
2016,11,21,03,08,8.70
2016,11,21,03,09,8.70
2016,11,21,03,10,8.80
2016,11,21,03,11,8.80
2016,11,21,03,12,8.80
2016,11,21,03,13,8.80
2016,11,21,03,14,8.80
2016,11,21,03,15,8.80
2016,11,21,03,16,8.70
2016,11,21,03,17,8.80
2016,11,21,03,18,8.90
2016,11,21,03,19,8.90
2016,11,21,03,20,9.00
2016,11,21,03,21,9.00
2016,11,21,03,22,9.10
2016,11,21,03,23,9.20
2016,11,21,03,24,9.20
2016,11,21,03,25,9.20
2016,11,21,03,26,9.10
2016,11,21,03,27,9.10
2016,11,21,03,28,9.10
2016,11,21,03,29,9.10
2016,11,21,03,30,9.20
2016,11,21,03,31,9.20
2016,11,21,03,32,9.30
2016,11,21,03,33,9.30
2016,11,21,03,34,9.30
2016,11,21,03,35,9.40
2016,11,21,03,36,9.50
2016,11,21,03,37,9.60
2016,11,21,03,38,9.70
2016,11,21,03,39,9.80
2016,11,21,03,40,9.90
2016,11,21,03,41,10.00
2016,11,21,03,42,10.10
2016,11,21,03,43,10.10
2016,11,21,03,44,10.10
2016,11,21,03,45,10.10
2016,11,21,03,46,10.10
2016,11,21,03,47,10.00
2016,11,21,03,48,9.90
2016,11,21,03,49,9.80
2016,11,21,03,50,9.80
2016,11,21,03,51,9.80
2016,11,21,03,52,9.80
2016,11,21,03,53,9.80
2016,11,21,03,54,9.80
2016,11,21,03,55,9.70
2016,11,21,03,56,9.70
2016,11,21,03,57,9.60
2016,11,21,03,58,9.60
2016,11,21,03,59,9.60
2016,11,21,04,00,9.60
2016,11,21,04,01,9.50
2016,11,21,04,02,9.40
2016,11,21,04,03,9.40
2016,11,21,04,04,9.40
2016,11,21,04,05,9.40
2016,11,21,04,06,9.40
2016,11,21,04,07,9.30
2016,11,21,04,08,9.30
2016,11,21,04,09,9.30
2016,11,21,04,10,9.40
2016,11,21,04,11,9.50
2016,11,21,04,12,9.60
2016,11,21,04,13,9.70
2016,11,21,04,14,9.70
2016,11,21,04,15,9.80
2016,11,21,04,16,9.80
2016,11,21,04,17,9.80
2016,11,21,04,18,9.80
2016,11,21,04,19,9.80
2016,11,21,04,20,9.70
2016,11,21,04,21,9.70
2016,11,21,04,22,9.70
2016,11,21,04,23,9.70
2016,11,21,04,24,9.60
2016,11,21,04,25,9.60
2016,11,21,04,26,9.50
2016,11,21,04,27,9.40
2016,11,21,04,28,9.30
2016,11,21,04,29,9.20
2016,11,21,04,30,9.20
2016,11,21,04,31,9.10
2016,11,21,04,32,9.00
2016,11,21,04,33,9.00
2016,11,21,04,34,8.90
2016,11,21,04,35,8.90
2016,11,21,04,36,8.90
2016,11,21,04,37,8.90
2016,11,21,04,38,9.00
2016,11,21,04,39,9.00
2016,11,21,04,40,9.00
2016,11,21,04,41,9.00
2016,11,21,04,42,9.10
2016,11,21,04,43,9.10
2016,11,21,04,44,9.10
2016,11,21,04,45,9.10
2016,11,21,04,46,9.10
2016,11,21,04,47,9.10
2016,11,21,04,48,9.10
2016,11,21,04,49,9.10
2016,11,21,04,50,9.10
2016,11,21,04,51,9.10
2016,11,21,04,52,9.10
2016,11,21,04,53,9.20
2016,11,21,04,54,9.20
2016,11,21,04,55,9.20
2016,11,21,04,56,9.20
2016,11,21,04,57,9.20
2016,11,21,04,58,9.20
2016,11,21,04,59,9.20
2016,11,21,05,00,9.20
2016,11,21,05,01,9.20
2016,11,21,05,02,9.30
2016,11,21,05,03,9.30
2016,11,21,05,04,9.40
2016,11,21,05,05,9.40
2016,11,21,05,06,9.40
2016,11,21,05,07,9.50
2016,11,21,05,08,9.50
2016,11,21,05,09,9.60
2016,11,21,05,10,9.60
2016,11,21,05,11,9.60
2016,11,21,05,12,9.60
2016,11,21,05,13,9.60
2016,11,21,05,14,9.60
2016,11,21,05,15,9.60
2016,11,21,05,16,9.60
2016,11,21,05,17,9.60
2016,11,21,05,18,9.50
2016,11,21,05,19,9.40
2016,11,21,05,20,9.40
2016,11,21,05,21,9.30
2016,11,21,05,22,9.30
2016,11,21,05,23,9.20
2016,11,21,05,24,9.20
2016,11,21,05,25,9.10
2016,11,21,05,26,9.10
2016,11,21,05,27,9.00
2016,11,21,05,28,8.90
2016,11,21,05,29,8.90
2016,11,21,05,30,8.80
2016,11,21,05,31,8.80
2016,11,21,05,32,8.70
2016,11,21,05,33,8.70
2016,11,21,05,34,8.70
2016,11,21,05,35,8.70
2016,11,21,05,36,8.70
2016,11,21,05,37,8.70
2016,11,21,05,38,8.70
2016,11,21,05,39,8.70
2016,11,21,05,40,8.80
2016,11,21,05,41,8.80
2016,11,21,05,42,8.80
2016,11,21,05,43,8.80
2016,11,21,05,44,8.90
2016,11,21,05,45,8.90
2016,11,21,05,46,8.90
2016,11,21,05,47,9.00
2016,11,21,05,48,9.00
2016,11,21,05,49,9.10
2016,11,21,05,50,9.10
2016,11,21,05,51,9.10
2016,11,21,05,52,9.20
2016,11,21,05,53,9.20
2016,11,21,05,54,9.20
2016,11,21,05,55,9.20
2016,11,21,05,56,9.20
2016,11,21,05,57,9.20
2016,11,21,05,58,9.20
2016,11,21,05,59,9.20
2016,11,21,06,00,9.20
2016,11,21,06,01,9.20
2016,11,21,06,02,9.20
2016,11,21,06,03,9.20
2016,11,21,06,04,9.10
2016,11,21,06,05,9.00
2016,11,21,06,06,8.90
2016,11,21,06,07,8.80
2016,11,21,06,08,8.70
2016,11,21,06,09,8.60
2016,11,21,06,10,8.50
2016,11,21,06,11,8.40
2016,11,21,06,12,8.30
2016,11,21,06,13,8.20
2016,11,21,06,14,8.10
2016,11,21,06,15,8.00
2016,11,21,06,16,7.90
2016,11,21,06,17,7.80
2016,11,21,06,18,7.80
2016,11,21,06,19,7.70
2016,11,21,06,20,7.60
2016,11,21,06,21,7.50
2016,11,21,06,22,7.40
2016,11,21,06,23,7.40
2016,11,21,06,24,7.30
2016,11,21,06,25,7.30
2016,11,21,06,26,7.20
2016,11,21,06,27,7.20
2016,11,21,06,28,7.20
2016,11,21,06,29,7.10
2016,11,21,06,30,7.10
2016,11,21,06,31,7.10
2016,11,21,06,32,7.10
2016,11,21,06,33,7.00
2016,11,21,06,34,7.00
2016,11,21,06,35,7.00
2016,11,21,06,36,7.00
2016,11,21,06,37,7.00
2016,11,21,06,38,6.90
2016,11,21,06,39,6.90
2016,11,21,06,40,6.90
2016,11,21,06,41,6.90
2016,11,21,06,42,6.80
2016,11,21,06,43,6.80
2016,11,21,06,44,6.80
2016,11,21,06,45,6.80
2016,11,21,06,46,6.80
2016,11,21,06,47,6.80
2016,11,21,06,48,6.70
2016,11,21,06,49,6.70
2016,11,21,06,50,6.70
2016,11,21,06,51,6.70
2016,11,21,06,52,6.70
2016,11,21,06,53,6.60
2016,11,21,06,54,6.60
2016,11,21,06,55,6.60
2016,11,21,06,56,6.60
2016,11,21,06,57,6.60
2016,11,21,06,58,6.60
2016,11,21,06,59,6.50
2016,11,21,07,00,6.50
2016,11,21,07,01,6.50
2016,11,21,07,02,6.50
2016,11,21,07,03,6.40
2016,11,21,07,04,6.40
2016,11,21,07,05,6.40
2016,11,21,07,06,6.40
2016,11,21,07,07,6.40
2016,11,21,07,08,6.30
2016,11,21,07,09,6.30
2016,11,21,07,10,6.30
2016,11,21,07,11,6.30
2016,11,21,07,12,6.30
2016,11,21,07,13,6.20
2016,11,21,07,14,6.20
2016,11,21,07,15,6.20
2016,11,21,07,16,6.20
2016,11,21,07,17,6.20
2016,11,21,07,18,6.20
2016,11,21,07,19,6.20
2016,11,21,07,20,6.10
2016,11,21,07,21,6.10
2016,11,21,07,22,6.10
2016,11,21,07,23,6.10
2016,11,21,07,24,6.10
2016,11,21,07,25,6.00
2016,11,21,07,26,6.00
2016,11,21,07,27,5.90
2016,11,21,07,28,5.90
2016,11,21,07,29,5.90
2016,11,21,07,30,5.90
2016,11,21,07,31,5.90
2016,11,21,07,32,5.90
2016,11,21,07,33,5.90
2016,11,21,07,34,5.90
2016,11,21,07,35,5.90
2016,11,21,07,36,5.90
2016,11,21,07,37,5.90
2016,11,21,07,38,5.90
2016,11,21,07,39,5.90
2016,11,21,07,40,5.80
2016,11,21,07,41,5.80
2016,11,21,07,42,5.80
2016,11,21,07,43,5.80
2016,11,21,07,44,5.80
2016,11,21,07,45,5.80
2016,11,21,07,46,5.80
2016,11,21,07,47,5.80
2016,11,21,07,48,5.80
2016,11,21,07,49,5.80
2016,11,21,07,50,5.80
2016,11,21,07,51,5.80
2016,11,21,07,52,5.80
2016,11,21,07,53,5.80
2016,11,21,07,54,5.80
2016,11,21,07,55,5.80
2016,11,21,07,56,5.80
2016,11,21,07,57,5.80
2016,11,21,07,58,5.80
2016,11,21,07,59,5.80
2016,11,21,08,00,5.70
2016,11,21,08,01,5.70
2016,11,21,08,02,5.60
2016,11,21,08,03,5.60
2016,11,21,08,04,5.60
2016,11,21,08,05,5.60
2016,11,21,08,06,5.50
2016,11,21,08,07,5.50
2016,11,21,08,08,5.40
2016,11,21,08,09,5.40
2016,11,21,08,10,5.40
2016,11,21,08,11,5.40
2016,11,21,08,12,5.40
2016,11,21,08,13,5.40
2016,11,21,08,14,5.40
2016,11,21,08,15,5.40
2016,11,21,08,16,5.40
2016,11,21,08,17,5.40
2016,11,21,08,18,5.30
2016,11,21,08,19,5.30
2016,11,21,08,20,5.40
2016,11,21,08,21,5.40
2016,11,21,08,22,5.40
2016,11,21,08,23,5.40
2016,11,21,08,24,5.40
2016,11,21,08,25,5.40
2016,11,21,08,26,5.40
2016,11,21,08,27,5.40
2016,11,21,08,28,5.40
2016,11,21,08,29,5.40
2016,11,21,08,30,5.40
2016,11,21,08,31,5.40
2016,11,21,08,32,5.40
2016,11,21,08,33,5.40
2016,11,21,08,34,5.40
2016,11,21,08,35,5.40
2016,11,21,08,36,5.50
2016,11,21,08,37,5.50
2016,11,21,08,38,5.50
2016,11,21,08,39,5.50
2016,11,21,08,40,5.50
2016,11,21,08,41,5.60
2016,11,21,08,42,5.60
2016,11,21,08,43,5.60
2016,11,21,08,44,5.60
2016,11,21,08,45,5.60
2016,11,21,08,46,5.60
2016,11,21,08,47,5.60
2016,11,21,08,48,5.60
2016,11,21,08,49,5.60
2016,11,21,08,50,5.60
2016,11,21,08,51,5.70
2016,11,21,08,52,5.70
2016,11,21,08,53,5.80
2016,11,21,08,54,5.80
2016,11,21,08,55,5.90
2016,11,21,08,56,6.00
2016,11,21,08,57,6.10
2016,11,21,08,58,6.10
2016,11,21,08,59,6.20
2016,11,21,09,00,6.20
2016,11,21,09,01,6.30
2016,11,21,09,02,6.30
2016,11,21,09,03,6.30
2016,11,21,09,04,6.30
2016,11,21,09,05,6.30
2016,11,21,09,06,6.30
2016,11,21,09,07,6.30
2016,11,21,09,08,6.30
2016,11,21,09,09,6.30
2016,11,21,09,10,6.30
2016,11,21,09,11,6.30
2016,11,21,09,12,6.30
2016,11,21,09,13,6.30
2016,11,21,09,14,6.30
2016,11,21,09,15,6.30
2016,11,21,09,16,6.30
2016,11,21,09,17,6.40
2016,11,21,09,18,6.40
2016,11,21,09,19,6.40
2016,11,21,09,20,6.40
2016,11,21,09,21,6.40
2016,11,21,09,22,6.50
2016,11,21,09,23,6.50
2016,11,21,09,24,6.60
2016,11,21,09,25,6.60
2016,11,21,09,26,6.70
2016,11,21,09,27,6.70
2016,11,21,09,28,6.80
2016,11,21,09,29,6.90
2016,11,21,09,30,7.00
2016,11,21,09,31,7.10
2016,11,21,09,32,7.10
2016,11,21,09,33,7.20
2016,11,21,09,34,7.20
2016,11,21,09,35,7.20
2016,11,21,09,36,7.30
2016,11,21,09,37,7.40
2016,11,21,09,38,7.50
2016,11,21,09,39,7.60
2016,11,21,09,40,7.60
2016,11,21,09,41,7.70
2016,11,21,09,42,7.80
2016,11,21,09,43,7.80
2016,11,21,09,44,7.90
2016,11,21,09,45,7.90
2016,11,21,09,46,8.00
2016,11,21,09,47,8.10
2016,11,21,09,48,8.20
2016,11,21,09,49,8.30
2016,11,21,09,50,8.30
2016,11,21,09,51,8.50
2016,11,21,09,52,8.60
2016,11,21,09,53,8.70
2016,11,21,09,54,8.80
2016,11,21,09,55,8.80
2016,11,21,09,56,8.80
2016,11,21,09,57,8.80
2016,11,21,09,58,8.70
2016,11,21,09,59,8.70
2016,11,21,10,00,8.70
2016,11,21,10,01,8.70
2016,11,21,10,02,8.70
2016,11,21,10,03,8.70
2016,11,21,10,04,8.80
2016,11,21,10,05,8.90
2016,11,21,10,06,9.00
2016,11,21,10,07,9.10
2016,11,21,10,08,9.20
2016,11,21,10,09,9.20
2016,11,21,10,10,9.20
2016,11,21,10,11,9.20
2016,11,21,10,12,9.20
2016,11,21,10,13,9.20
2016,11,21,10,14,9.20
2016,11,21,10,15,9.30
2016,11,21,10,16,9.30
2016,11,21,10,17,9.30
2016,11,21,10,18,9.30
2016,11,21,10,19,9.40
2016,11,21,10,20,9.40
2016,11,21,10,21,9.50
2016,11,21,10,22,9.60
2016,11,21,10,23,9.60
2016,11,21,10,24,9.70
2016,11,21,10,25,9.70
2016,11,21,10,26,9.80
2016,11,21,10,27,9.80
2016,11,21,10,28,9.90
2016,11,21,10,29,10.00
2016,11,21,10,30,10.00
2016,11,21,10,31,10.00
2016,11,21,10,32,10.10
2016,11,21,10,33,10.10
2016,11,21,10,34,10.10
2016,11,21,10,35,10.10
2016,11,21,10,36,10.10
2016,11,21,10,37,10.10
2016,11,21,10,38,10.10
2016,11,21,10,39,10.10
2016,11,21,10,40,10.10
2016,11,21,10,41,10.10
2016,11,21,10,42,10.10
2016,11,21,10,43,10.10
2016,11,21,10,44,10.10
2016,11,21,10,45,10.00
2016,11,21,10,46,10.00
2016,11,21,10,47,9.90
2016,11,21,10,48,9.90
2016,11,21,10,49,9.90
2016,11,21,10,50,9.90
2016,11,21,10,51,10.00
2016,11,21,10,52,10.10
2016,11,21,10,53,10.10
2016,11,21,10,54,10.10
2016,11,21,10,55,10.20
2016,11,21,10,56,10.20
2016,11,21,10,57,10.20
2016,11,21,10,58,10.20
2016,11,21,10,59,10.20
2016,11,21,11,00,10.20
2016,11,21,11,01,10.30
2016,11,21,11,02,10.30
2016,11,21,11,03,10.30
2016,11,21,11,04,10.40
2016,11,21,11,05,10.40
2016,11,21,11,06,10.50
2016,11,21,11,07,10.50
2016,11,21,11,08,10.60
2016,11,21,11,09,10.60
2016,11,21,11,10,10.60
2016,11,21,11,11,10.50
2016,11,21,11,12,10.50
2016,11,21,11,13,10.50
2016,11,21,11,14,10.40
2016,11,21,11,15,10.40
2016,11,21,11,16,10.30
2016,11,21,11,17,10.20
2016,11,21,11,18,10.10
2016,11,21,11,19,10.00
2016,11,21,11,20,9.90
2016,11,21,11,21,9.90
2016,11,21,11,22,9.80
2016,11,21,11,23,9.80
2016,11,21,11,24,9.80
2016,11,21,11,25,9.80
2016,11,21,11,26,9.80
2016,11,21,11,27,9.90
2016,11,21,11,28,9.90
2016,11,21,11,29,10.00
2016,11,21,11,30,10.00
2016,11,21,11,31,10.10
2016,11,21,11,32,10.20
2016,11,21,11,33,10.30
2016,11,21,11,34,10.30
2016,11,21,11,35,10.40
2016,11,21,11,36,10.40
2016,11,21,11,37,10.50
2016,11,21,11,38,10.60
2016,11,21,11,39,10.70
2016,11,21,11,40,10.80
2016,11,21,11,41,10.80
2016,11,21,11,42,10.80
2016,11,21,11,43,10.90
2016,11,21,11,44,10.90
2016,11,21,11,45,10.90
2016,11,21,11,46,10.90
2016,11,21,11,47,10.90
2016,11,21,11,48,10.90
2016,11,21,11,49,11.00
2016,11,21,11,50,11.00
2016,11,21,11,51,11.00
2016,11,21,11,52,11.10
2016,11,21,11,53,11.10
2016,11,21,11,54,11.10
2016,11,21,11,55,11.10
2016,11,21,11,56,11.10
2016,11,21,11,57,11.10
2016,11,21,11,58,11.10
2016,11,21,11,59,11.10
2016,11,21,12,00,11.10
2016,11,21,12,01,11.10
2016,11,21,12,02,11.10
2016,11,21,12,03,11.20
2016,11,21,12,04,11.20
2016,11,21,12,05,11.20
2016,11,21,12,06,11.30
2016,11,21,12,07,11.30
2016,11,21,12,08,11.30
2016,11,21,12,09,11.40
2016,11,21,12,10,11.40
2016,11,21,12,11,11.50
2016,11,21,12,12,11.50
2016,11,21,12,13,11.60
2016,11,21,12,14,11.60
2016,11,21,12,15,11.60
2016,11,21,12,16,11.70
2016,11,21,12,17,11.70
2016,11,21,12,18,11.60
2016,11,21,12,19,11.50
2016,11,21,12,20,11.40
2016,11,21,12,21,11.30
2016,11,21,12,22,11.30
2016,11,21,12,23,11.30
2016,11,21,12,24,11.40
2016,11,21,12,25,11.40
2016,11,21,12,26,11.40
2016,11,21,12,27,11.40
2016,11,21,12,28,11.40
2016,11,21,12,29,11.40
2016,11,21,12,30,11.40
2016,11,21,12,31,11.30
2016,11,21,12,32,11.30
2016,11,21,12,33,11.30
2016,11,21,12,34,11.20
2016,11,21,12,35,11.20
2016,11,21,12,36,11.20
2016,11,21,12,37,11.10
2016,11,21,12,38,11.10
2016,11,21,12,39,11.10
2016,11,21,12,40,11.10
2016,11,21,12,41,11.10
2016,11,21,12,42,11.10
2016,11,21,12,43,11.10
2016,11,21,12,44,11.10
2016,11,21,12,45,11.00
2016,11,21,12,46,11.10
2016,11,21,12,47,11.00
2016,11,21,12,48,11.00
2016,11,21,12,49,11.00
2016,11,21,12,50,11.00
2016,11,21,12,51,11.00
2016,11,21,12,52,11.00
2016,11,21,12,53,10.90
2016,11,21,12,54,10.90
2016,11,21,12,55,10.90
2016,11,21,12,56,10.90
2016,11,21,12,57,10.90
2016,11,21,12,58,10.90
2016,11,21,12,59,10.90
2016,11,21,13,00,10.90
2016,11,21,13,01,10.90
2016,11,21,13,02,10.80
2016,11,21,13,03,10.80
2016,11,21,13,04,10.80
2016,11,21,13,05,10.80
2016,11,21,13,06,10.80
2016,11,21,13,07,10.80
2016,11,21,13,08,10.80
2016,11,21,13,09,10.80
2016,11,21,13,10,10.80
2016,11,21,13,11,10.80
2016,11,21,13,12,10.80
2016,11,21,13,13,10.80
2016,11,21,13,14,10.70
2016,11,21,13,15,10.70
2016,11,21,13,16,10.70
2016,11,21,13,17,10.70
2016,11,21,13,18,10.60
2016,11,21,13,19,10.60
2016,11,21,13,20,10.60
2016,11,21,13,21,10.60
2016,11,21,13,22,10.50
2016,11,21,13,23,10.50
2016,11,21,13,24,10.40
2016,11,21,13,25,10.40
2016,11,21,13,26,10.30
2016,11,21,13,27,10.30
2016,11,21,13,28,10.30
2016,11,21,13,29,10.30
2016,11,21,13,30,10.30
2016,11,21,13,31,10.20
2016,11,21,13,32,10.20
2016,11,21,13,33,10.20
2016,11,21,13,34,10.20
2016,11,21,13,35,10.20
2016,11,21,13,36,10.20
2016,11,21,13,37,10.10
2016,11,21,13,38,10.10
2016,11,21,13,39,10.20
2016,11,21,13,40,10.20
2016,11,21,13,41,10.20
2016,11,21,13,42,10.20
2016,11,21,13,43,10.20
2016,11,21,13,44,10.20
2016,11,21,13,45,10.30
2016,11,21,13,46,10.30
2016,11,21,13,47,10.30
2016,11,21,13,48,10.30
2016,11,21,13,49,10.40
2016,11,21,13,50,10.40
2016,11,21,13,51,10.40
2016,11,21,13,52,10.40
2016,11,21,13,53,10.40
2016,11,21,13,54,10.50
2016,11,21,13,55,10.40
2016,11,21,13,56,10.40
2016,11,21,13,57,10.40
2016,11,21,13,58,10.40
2016,11,21,13,59,10.40
2016,11,21,14,00,10.40
2016,11,21,14,01,10.30
2016,11,21,14,02,10.30
2016,11,21,14,03,10.30
2016,11,21,14,04,10.30
2016,11,21,14,05,10.20
2016,11,21,14,06,10.20
2016,11,21,14,07,10.20
2016,11,21,14,08,10.20
2016,11,21,14,09,10.20
2016,11,21,14,10,10.20
2016,11,21,14,11,10.20
2016,11,21,14,12,10.20
2016,11,21,14,13,10.10
2016,11,21,14,14,10.10
2016,11,21,14,15,10.10
2016,11,21,14,16,10.10
2016,11,21,14,17,10.00
2016,11,21,14,18,10.00
2016,11,21,14,19,9.90
2016,11,21,14,20,9.90
2016,11,21,14,21,9.90
2016,11,21,14,22,9.90
2016,11,21,14,23,9.90
2016,11,21,14,24,9.80
2016,11,21,14,25,9.80
2016,11,21,14,26,9.80
2016,11,21,14,27,9.80
2016,11,21,14,28,9.80
2016,11,21,14,29,9.90
2016,11,21,14,30,9.90
2016,11,21,14,31,9.90
2016,11,21,14,32,9.90
2016,11,21,14,33,9.90
2016,11,21,14,34,9.90
2016,11,21,14,35,9.90
2016,11,21,14,36,10.00
2016,11,21,14,37,10.00
2016,11,21,14,38,10.10
2016,11,21,14,39,10.10
2016,11,21,14,40,10.10
2016,11,21,14,41,10.10
2016,11,21,14,42,10.10
2016,11,21,14,43,10.10
2016,11,21,14,44,10.10
2016,11,21,14,45,10.10
2016,11,21,14,46,10.10
2016,11,21,14,47,10.00
2016,11,21,14,48,10.00
2016,11,21,14,49,9.90
2016,11,21,14,50,9.90
2016,11,21,14,51,9.90
2016,11,21,14,52,9.90
2016,11,21,14,53,9.80
2016,11,21,14,54,9.80
2016,11,21,14,55,9.80
2016,11,21,14,56,9.80
2016,11,21,14,57,9.80
2016,11,21,14,58,9.70
2016,11,21,14,59,9.70
2016,11,21,15,00,9.70
2016,11,21,15,01,9.60
2016,11,21,15,02,9.60
2016,11,21,15,03,9.60
2016,11,21,15,04,9.60
2016,11,21,15,05,9.60
2016,11,21,15,06,9.60
2016,11,21,15,07,9.60
2016,11,21,15,08,9.60
2016,11,21,15,09,9.60
2016,11,21,15,10,9.60
2016,11,21,15,11,9.60
2016,11,21,15,12,9.60
2016,11,21,15,13,9.70
2016,11,21,15,14,9.70
2016,11,21,15,15,9.70
2016,11,21,15,16,9.70
2016,11,21,15,17,9.70
2016,11,21,15,18,9.70
2016,11,21,15,19,9.70
2016,11,21,15,20,9.70
2016,11,21,15,21,9.70
2016,11,21,15,22,9.60
2016,11,21,15,23,9.60
2016,11,21,15,24,9.60
2016,11,21,15,25,9.60
2016,11,21,15,26,9.50
2016,11,21,15,27,9.50
2016,11,21,15,28,9.40
2016,11,21,15,29,9.40
2016,11,21,15,30,9.30
2016,11,21,15,31,9.30
2016,11,21,15,32,9.30
2016,11,21,15,33,9.20
2016,11,21,15,34,9.20
2016,11,21,15,35,9.20
2016,11,21,15,36,9.10
2016,11,21,15,37,9.10
2016,11,21,15,38,9.00
2016,11,21,15,39,9.00
2016,11,21,15,40,8.90
2016,11,21,15,41,8.90
2016,11,21,15,42,8.80
2016,11,21,15,43,8.80
2016,11,21,15,44,8.80
2016,11,21,15,45,8.70
2016,11,21,15,46,8.70
2016,11,21,15,47,8.60
2016,11,21,15,48,8.60
2016,11,21,15,49,8.50
2016,11,21,15,50,8.50
2016,11,21,15,51,8.40
2016,11,21,15,52,8.40
2016,11,21,15,53,8.30
2016,11,21,15,54,8.30
2016,11,21,15,55,8.30
2016,11,21,15,56,8.20
2016,11,21,15,57,8.20
2016,11,21,15,58,8.20
2016,11,21,15,59,8.20
2016,11,21,16,00,8.10
2016,11,21,16,01,8.10
2016,11,21,16,02,8.10
2016,11,21,16,03,8.10
2016,11,21,16,04,8.00
2016,11,21,16,05,8.00
2016,11,21,16,06,8.00
2016,11,21,16,07,7.90
2016,11,21,16,08,7.90
2016,11,21,16,09,7.90
2016,11,21,16,10,7.90
2016,11,21,16,11,7.90
2016,11,21,16,12,7.90
2016,11,21,16,13,7.90
2016,11,21,16,14,7.90
2016,11,21,16,15,7.90
2016,11,21,16,16,7.80
2016,11,21,16,17,7.80
2016,11,21,16,18,7.80
2016,11,21,16,19,7.80
2016,11,21,16,20,7.80
2016,11,21,16,21,7.80
2016,11,21,16,22,7.80
2016,11,21,16,23,7.70
2016,11,21,16,24,7.70
2016,11,21,16,25,7.70
2016,11,21,16,26,7.70
2016,11,21,16,27,7.70
2016,11,21,16,28,7.60
2016,11,21,16,29,7.60
2016,11,21,16,30,7.50
2016,11,21,16,31,7.50
2016,11,21,16,32,7.50
2016,11,21,16,33,7.40
2016,11,21,16,34,7.40
2016,11,21,16,35,7.40
2016,11,21,16,36,7.40
2016,11,21,16,37,7.40
2016,11,21,16,38,7.30
2016,11,21,16,39,7.30
2016,11,21,16,40,7.30
2016,11,21,16,41,7.30
2016,11,21,16,42,7.30
2016,11,21,16,43,7.20
2016,11,21,16,44,7.20
2016,11,21,16,45,7.20
2016,11,21,16,46,7.20
2016,11,21,16,47,7.20
2016,11,21,16,48,7.20
2016,11,21,16,49,7.10
2016,11,21,16,50,7.10
2016,11,21,16,51,7.10
2016,11,21,16,52,7.00
2016,11,21,16,53,7.00
2016,11,21,16,54,6.90
2016,11,21,16,55,6.90
2016,11,21,16,56,6.90
2016,11,21,16,57,6.80
2016,11,21,16,58,6.80
2016,11,21,16,59,6.80
2016,11,21,17,00,6.70
2016,11,21,17,01,6.70
2016,11,21,17,02,6.70
2016,11,21,17,03,6.60
2016,11,21,17,04,6.60
2016,11,21,17,05,6.50
2016,11,21,17,06,6.40
2016,11,21,17,07,6.40
2016,11,21,17,08,6.30
2016,11,21,17,09,6.30
2016,11,21,17,10,6.20
2016,11,21,17,11,6.20
2016,11,21,17,12,6.10
2016,11,21,17,13,6.10
2016,11,21,17,14,6.10
2016,11,21,17,15,6.10
2016,11,21,17,16,6.00
2016,11,21,17,17,6.00
2016,11,21,17,18,6.00
2016,11,21,17,19,6.00
2016,11,21,17,20,6.00
2016,11,21,17,21,6.00
2016,11,21,17,22,6.00
2016,11,21,17,23,6.00
2016,11,21,17,24,6.00
2016,11,21,17,25,5.90
2016,11,21,17,26,5.90
2016,11,21,17,27,5.90
2016,11,21,17,28,5.90
2016,11,21,17,29,5.90
2016,11,21,17,30,5.90
2016,11,21,17,31,5.80
2016,11,21,17,32,5.80
2016,11,21,17,33,5.80
2016,11,21,17,34,5.80
2016,11,21,17,35,5.80
2016,11,21,17,36,5.80
2016,11,21,17,37,5.90
2016,11,21,17,38,5.90
2016,11,21,17,39,5.90
2016,11,21,17,40,5.90
2016,11,21,17,41,5.90
2016,11,21,17,42,5.90
2016,11,21,17,43,5.90
2016,11,21,17,44,5.80
2016,11,21,17,45,5.80
2016,11,21,17,46,5.80
2016,11,21,17,47,5.80
2016,11,21,17,48,5.80
2016,11,21,17,49,5.80
2016,11,21,17,50,5.70
2016,11,21,17,51,5.70
2016,11,21,17,52,5.70
2016,11,21,17,53,5.70
2016,11,21,17,54,5.70
2016,11,21,17,55,5.60